Time,TemperatureF,DewpointF,PressureIn,WindDirection,WindDirectionDegrees,WindSpeedMPH,WindSpeedGustMPH,Humidity,HourlyPrecipIn,Conditions,Clouds,dailyrainin,SoftwareType,DateUTC
2013-11-07 00:00:00,36.5,27.7,0.00,West,270,2.7,6.3,70,0.00,,---,0.00,VWS V14.01,2013-11-07 06:00:00,
2013-11-07 00:01:00,36.5,27.7,0.00,West,270,2.7,7.2,70,0.00,,---,0.00,VWS V14.01,2013-11-07 06:01:00,
2013-11-07 00:02:00,36.5,27.7,0.00,West,270,2.9,7.2,70,0.00,,---,0.00,VWS V14.01,2013-11-07 06:02:00,
2013-11-07 00:03:00,36.5,27.3,0.00,West,270,3.6,7.2,69,0.00,,---,0.00,VWS V14.01,2013-11-07 06:03:00,
2013-11-07 00:04:00,35.8,27.0,0.00,West,270,1.6,2.9,70,0.00,,---,0.00,VWS V14.01,2013-11-07 06:04:00,
2013-11-07 00:05:00,36.5,27.3,0.00,WSW,248,2.0,7.2,69,0.00,,---,0.00,VWS V14.01,2013-11-07 06:05:00,
2013-11-07 00:06:00,36.5,27.3,0.00,WNW,292,2.5,7.2,69,0.00,,---,0.00,VWS V14.01,2013-11-07 06:06:00,
2013-11-07 00:07:00,36.5,27.3,0.00,WNW,292,1.3,7.2,69,0.00,,---,0.00,VWS V14.01,2013-11-07 06:07:00,
2013-11-07 00:09:00,35.8,27.3,0.00,West,270,2.5,4.0,71,0.00,,---,0.00,VWS V14.01,2013-11-07 06:09:00,
2013-11-07 00:14:00,35.8,27.3,0.00,West,270,2.7,4.0,71,0.00,,---,0.00,VWS V14.01,2013-11-07 06:14:00,
2013-11-07 00:19:00,35.8,27.7,0.00,WNW,292,5.4,6.9,72,0.00,,---,0.00,VWS V14.01,2013-11-07 06:19:00,
2013-11-07 00:24:00,36.0,27.8,0.00,NW,315,3.4,6.9,72,0.00,,---,0.00,VWS V14.01,2013-11-07 06:24:00,
2013-11-07 00:29:00,36.2,27.7,0.00,West,270,3.4,7.4,71,0.00,,---,0.00,VWS V14.01,2013-11-07 06:29:00,
2013-11-07 00:34:00,36.0,27.5,0.00,NW,315,3.4,5.4,71,0.00,,---,0.00,VWS V14.01,2013-11-07 06:34:00,
2013-11-07 00:39:00,35.8,27.3,0.00,NW,315,6.5,8.1,71,0.00,,---,0.00,VWS V14.01,2013-11-07 06:39:00,
2013-11-07 00:44:00,36.2,27.7,0.00,NW,315,6.0,8.1,71,0.00,,---,0.00,VWS V14.01,2013-11-07 06:44:00,
2013-11-07 00:49:00,36.3,27.5,0.00,NW,315,4.3,6.0,70,0.00,,---,0.00,VWS V14.01,2013-11-07 06:49:00,
2013-11-07 00:54:00,36.3,27.5,0.00,West,270,5.8,6.0,70,0.00,,---,0.00,VWS V14.01,2013-11-07 06:54:00,
2013-11-07 00:59:00,36.5,27.7,0.00,West,270,3.1,6.3,70,0.00,,---,0.00,VWS V14.01,2013-11-07 06:59:00,
2013-11-07 01:04:00,36.5,27.3,0.00,West,270,3.1,7.2,69,0.00,,---,0.00,VWS V14.01,2013-11-07 07:04:00,
2013-11-07 01:09:00,36.5,27.3,0.00,WNW,292,0.0,7.2,69,0.00,,---,0.00,VWS V14.01,2013-11-07 07:09:00,
2013-11-07 01:14:00,35.1,25.2,0.00,NE,45,4.3,7.2,67,0.00,,---,0.00,VWS V14.01,2013-11-07 07:14:00,
2013-11-07 01:19:00,34.0,24.2,0.00,NE,45,2.5,3.6,67,0.00,,---,0.00,VWS V14.01,2013-11-07 07:19:00,
2013-11-07 01:24:00,33.8,24.7,0.00,North,0,2.9,3.6,69,0.00,,---,0.00,VWS V14.01,2013-11-07 07:24:00,
2013-11-07 01:29:00,33.5,24.4,0.00,North,0,3.6,4.0,69,0.00,,---,0.00,VWS V14.01,2013-11-07 07:29:00,
2013-11-07 01:34:00,33.5,24.4,0.00,North,0,1.6,2.5,69,0.00,,---,0.00,VWS V14.01,2013-11-07 07:34:00,
2013-11-07 01:39:00,31.5,22.8,0.00,North,0,3.6,4.0,70,0.00,,---,0.00,VWS V14.01,2013-11-07 07:39:00,
2013-11-07 01:44:00,31.3,24.3,0.00,NW,315,3.6,5.4,75,0.00,,---,0.00,VWS V14.01,2013-11-07 07:44:00,
2013-11-07 01:49:00,31.5,25.4,0.00,NW,315,4.0,4.3,78,0.00,,---,0.00,VWS V14.01,2013-11-07 07:49:00,
2013-11-07 01:54:00,31.1,24.8,0.00,West,270,2.0,4.3,77,0.00,,---,0.00,VWS V14.01,2013-11-07 07:54:00,
2013-11-07 01:59:00,30.8,24.4,0.00,West,270,0.0,4.3,77,0.00,,---,0.00,VWS V14.01,2013-11-07 07:59:00,
2013-11-07 02:04:00,30.9,25.2,0.00,West,270,2.0,2.9,79,0.00,,---,0.00,VWS V14.01,2013-11-07 08:04:00,
2013-11-07 02:09:00,30.9,25.2,0.00,SW,225,1.3,2.9,79,0.00,,---,0.00,VWS V14.01,2013-11-07 08:09:00,
2013-11-07 02:14:00,30.6,25.2,0.00,NW,315,1.3,2.9,80,0.00,,---,0.00,VWS V14.01,2013-11-07 08:14:00,
2013-11-07 02:19:00,30.2,24.5,0.00,NW,315,1.6,2.7,79,0.00,,---,0.00,VWS V14.01,2013-11-07 08:19:00,
2013-11-07 02:24:00,30.0,24.3,0.00,NW,315,2.0,2.7,79,0.00,,---,0.00,VWS V14.01,2013-11-07 08:24:00,
2013-11-07 02:29:00,29.1,23.5,0.00,North,0,1.1,4.0,79,0.00,,---,0.00,VWS V14.01,2013-11-07 08:29:00,
2013-11-07 02:34:00,29.1,23.8,0.00,South,180,0.0,2.7,80,0.00,,---,0.00,VWS V14.01,2013-11-07 08:34:00,
2013-11-07 02:39:00,29.0,23.6,0.00,North,0,2.7,2.7,80,0.00,,---,0.00,VWS V14.01,2013-11-07 08:39:00,
2013-11-07 02:44:00,28.4,23.3,0.00,North,0,1.3,3.6,81,0.00,,---,0.00,VWS V14.01,2013-11-07 08:44:00,
2013-11-07 02:49:00,28.4,23.3,0.00,South,180,0.0,1.1,81,0.00,,---,0.00,VWS V14.01,2013-11-07 08:49:00,
2013-11-07 02:54:00,27.5,22.2,0.00,WSW,248,2.9,2.9,80,0.00,,---,0.00,VWS V14.01,2013-11-07 08:54:00,
2013-11-07 02:59:00,28.6,25.2,0.00,WNW,292,2.9,5.6,87,0.00,,---,0.00,VWS V14.01,2013-11-07 08:59:00,
2013-11-07 03:04:00,29.0,26.1,0.00,WNW,292,3.8,3.8,89,0.00,,---,0.00,VWS V14.01,2013-11-07 09:04:00,
2013-11-07 03:09:00,29.1,26.6,0.00,NW,315,2.7,4.0,90,0.00,,---,0.00,VWS V14.01,2013-11-07 09:09:00,
2013-11-07 03:14:00,29.0,26.1,0.00,NW,315,0.0,4.0,89,0.00,,---,0.00,VWS V14.01,2013-11-07 09:14:00,
2013-11-07 03:19:00,29.0,25.9,0.00,West,270,2.5,3.6,88,0.00,,---,0.00,VWS V14.01,2013-11-07 09:19:00,
2013-11-07 03:24:00,29.1,26.0,0.00,NW,315,2.0,3.6,88,0.00,,---,0.00,VWS V14.01,2013-11-07 09:24:00,
2013-11-07 03:29:00,29.0,25.6,0.00,NW,315,0.0,3.6,87,0.00,,---,0.00,VWS V14.01,2013-11-07 09:29:00,
2013-11-07 03:34:00,28.4,24.8,0.00,SW,225,0.0,1.6,86,0.00,,---,0.00,VWS V14.01,2013-11-07 09:34:00,
2013-11-07 03:39:00,28.6,25.0,0.00,West,270,3.1,4.7,86,0.00,,---,0.00,VWS V14.01,2013-11-07 09:39:00,
2013-11-07 03:44:00,28.8,25.4,0.00,West,270,2.2,4.7,87,0.00,,---,0.00,VWS V14.01,2013-11-07 09:44:00,
2013-11-07 03:49:00,29.1,26.0,0.00,West,270,0.0,4.3,88,0.00,,---,0.00,VWS V14.01,2013-11-07 09:49:00,
2013-11-07 03:54:00,29.1,26.0,0.00,NW,315,1.6,4.3,88,0.00,,---,0.00,VWS V14.01,2013-11-07 09:54:00,
2013-11-07 03:59:00,28.4,25.0,0.00,NW,315,1.3,4.3,87,0.00,,---,0.00,VWS V14.01,2013-11-07 09:59:00,
2013-11-07 04:04:00,27.5,23.0,0.00,NNW,338,2.7,3.1,83,0.00,,---,0.00,VWS V14.01,2013-11-07 10:04:00,
2013-11-07 04:09:00,27.7,23.5,0.00,NW,315,1.6,3.6,84,0.00,,---,0.00,VWS V14.01,2013-11-07 10:09:00,
2013-11-07 04:14:00,28.1,24.4,0.00,WSW,248,2.0,3.6,86,0.00,,---,0.00,VWS V14.01,2013-11-07 10:14:00,
2013-11-07 04:19:00,27.5,23.9,0.00,NW,315,1.6,2.5,86,0.00,,---,0.00,VWS V14.01,2013-11-07 10:19:00,
2013-11-07 04:24:00,27.7,24.3,0.00,NW,315,2.0,2.5,87,0.00,,---,0.00,VWS V14.01,2013-11-07 10:24:00,
2013-11-07 04:29:00,28.1,25.0,0.00,NNW,338,2.5,3.1,88,0.00,,---,0.00,VWS V14.01,2013-11-07 10:29:00,
2013-11-07 04:34:00,27.9,24.8,0.00,SW,225,2.7,2.7,88,0.00,,---,0.00,VWS V14.01,2013-11-07 10:34:00,
2013-11-07 04:35:00,28.6,26.3,0.00,NNW,338,0.0,3.6,91,0.00,,---,0.00,VWS V14.01,2013-11-07 10:35:00,
2013-11-07 04:36:00,28.6,26.3,0.00,NNW,338,1.6,3.6,91,0.00,,---,0.00,VWS V14.01,2013-11-07 10:36:00,
2013-11-07 04:39:00,27.7,24.6,0.00,NNW,338,4.0,4.0,88,0.00,,---,0.00,VWS V14.01,2013-11-07 10:39:00,
2013-11-07 04:44:00,27.7,24.9,0.00,North,0,0.9,4.0,89,0.00,,---,0.00,VWS V14.01,2013-11-07 10:44:00,
2013-11-07 04:49:00,27.7,24.9,0.00,NNW,338,1.3,2.7,89,0.00,,---,0.00,VWS V14.01,2013-11-07 10:49:00,
2013-11-07 04:54:00,27.3,24.3,0.00,WNW,292,2.2,2.9,88,0.00,,---,0.00,VWS V14.01,2013-11-07 10:54:00,
2013-11-07 04:59:00,27.3,24.3,0.00,West,270,2.5,2.9,88,0.00,,---,0.00,VWS V14.01,2013-11-07 10:59:00,
2013-11-07 05:04:00,27.7,24.9,0.00,NW,315,5.4,5.8,89,0.00,,---,0.00,VWS V14.01,2013-11-07 11:04:00,
2013-11-07 05:09:00,28.1,25.8,0.00,NW,315,2.7,7.6,91,0.00,,---,0.00,VWS V14.01,2013-11-07 11:09:00,
2013-11-07 05:14:00,28.1,26.0,0.00,WNW,292,2.7,7.6,92,0.00,,---,0.00,VWS V14.01,2013-11-07 11:14:00,
2013-11-07 05:19:00,28.1,25.8,0.00,West,270,2.7,4.7,91,0.00,,---,0.00,VWS V14.01,2013-11-07 11:19:00,
2013-11-07 05:24:00,28.4,26.4,0.00,WNW,292,5.4,5.4,92,0.00,,---,0.00,VWS V14.01,2013-11-07 11:24:00,
2013-11-07 05:29:00,28.6,26.6,0.00,NW,315,2.7,5.4,92,0.00,,---,0.00,VWS V14.01,2013-11-07 11:29:00,
2013-11-07 05:34:00,28.6,26.3,0.00,West,270,1.6,3.6,91,0.00,,---,0.00,VWS V14.01,2013-11-07 11:34:00,
2013-11-07 05:37:00,28.6,26.3,0.00,NNW,338,2.0,3.6,91,0.00,,---,0.00,VWS V14.01,2013-11-07 11:37:00,
2013-11-07 05:42:00,28.6,26.0,0.00,West,270,2.9,3.6,90,0.00,,---,0.00,VWS V14.01,2013-11-07 11:42:00,
2013-11-07 05:47:00,28.6,26.0,0.00,West,270,3.4,3.6,90,0.00,,---,0.00,VWS V14.01,2013-11-07 11:47:00,
2013-11-07 05:52:00,28.8,26.0,0.00,West,270,1.3,3.6,89,0.00,,---,0.00,VWS V14.01,2013-11-07 11:52:00,
2013-11-07 05:57:00,28.4,25.6,0.00,West,270,2.5,3.6,89,0.00,,---,0.00,VWS V14.01,2013-11-07 11:57:00,
2013-11-07 06:02:00,28.6,25.5,0.00,West,270,0.0,0.0,88,0.00,,---,0.00,VWS V14.01,2013-11-07 12:02:00,
2013-11-07 06:06:00,28.4,25.3,0.00,NW,315,2.2,2.5,88,0.00,,---,0.00,VWS V14.01,2013-11-07 12:06:00,
2013-11-07 06:11:00,28.4,25.3,0.00,SW,225,2.9,2.9,88,0.00,,---,0.00,VWS V14.01,2013-11-07 12:11:00,
2013-11-07 06:16:00,28.1,25.0,0.00,West,270,2.9,2.9,88,0.00,,---,0.00,VWS V14.01,2013-11-07 12:16:00,
2013-11-07 06:21:00,28.2,25.1,0.00,West,270,3.4,4.0,88,0.00,,---,0.00,VWS V14.01,2013-11-07 12:21:00,
2013-11-07 06:26:00,28.1,25.0,0.00,WSW,248,0.0,4.0,88,0.00,,---,0.00,VWS V14.01,2013-11-07 12:26:00,
2013-11-07 06:31:00,28.1,25.0,0.00,NE,45,0.0,0.0,88,0.00,,---,0.00,VWS V14.01,2013-11-07 12:31:00,
2013-11-07 06:36:00,27.3,23.7,0.00,NE,45,0.0,0.0,86,0.00,,---,0.00,VWS V14.01,2013-11-07 12:36:00,
2013-11-07 06:41:00,27.3,23.7,0.00,NE,45,2.0,2.0,86,0.00,,---,0.00,VWS V14.01,2013-11-07 12:41:00,
2013-11-07 06:46:00,27.3,24.0,0.00,West,270,2.0,2.5,87,0.00,,---,0.00,VWS V14.01,2013-11-07 12:46:00,
2013-11-07 06:51:00,27.5,24.4,0.00,WNW,292,1.1,3.4,88,0.00,,---,0.00,VWS V14.01,2013-11-07 12:51:00,
2013-11-07 06:56:00,27.3,24.3,0.00,West,270,1.6,3.4,88,0.00,,---,0.00,VWS V14.01,2013-11-07 12:56:00,
2013-11-07 07:01:00,27.3,24.3,0.00,West,270,1.6,1.6,88,0.00,,---,0.00,VWS V14.01,2013-11-07 13:01:00,
2013-11-07 07:06:00,27.3,24.3,0.00,West,270,2.5,3.1,88,0.00,,---,0.00,VWS V14.01,2013-11-07 13:06:00,
2013-11-07 07:11:00,27.0,23.9,0.00,NW,315,0.0,3.1,88,0.00,,---,0.00,VWS V14.01,2013-11-07 13:11:00,
2013-11-07 07:16:00,26.8,23.7,0.00,NNW,338,0.0,0.0,88,0.00,,---,0.00,VWS V14.01,2013-11-07 13:16:00,
2013-11-07 07:21:00,26.8,23.7,0.00,NNW,338,0.0,2.0,88,0.00,,---,0.00,VWS V14.01,2013-11-07 13:21:00,
2013-11-07 07:26:00,27.0,23.9,0.00,NNW,338,1.1,2.0,88,0.00,,---,0.00,VWS V14.01,2013-11-07 13:26:00,
2013-11-07 07:31:00,27.3,24.3,0.00,NNW,338,1.1,1.6,88,0.00,,---,0.00,VWS V14.01,2013-11-07 13:31:00,
2013-11-07 07:36:00,28.4,25.6,0.00,West,270,0.0,2.7,89,0.00,,---,0.00,VWS V14.01,2013-11-07 13:36:00,
2013-11-07 07:41:00,29.9,27.0,0.00,West,270,2.5,2.7,89,0.00,,---,0.00,VWS V14.01,2013-11-07 13:41:00,
2013-11-07 07:46:00,31.1,28.5,0.00,WNW,292,4.3,4.3,90,0.00,,---,0.00,VWS V14.01,2013-11-07 13:46:00,
2013-11-07 07:51:00,31.5,28.6,0.00,West,270,2.2,4.3,89,0.00,,---,0.00,VWS V14.01,2013-11-07 13:51:00,
2013-11-07 07:56:00,32.6,27.1,0.00,SW,225,2.9,4.3,80,0.00,,---,0.00,VWS V14.01,2013-11-07 13:56:00,
2013-11-07 08:01:00,33.6,27.2,0.00,West,270,2.2,4.0,77,0.00,,---,0.00,VWS V14.01,2013-11-07 14:01:00,
2013-11-07 08:06:00,34.5,27.8,0.00,WSW,248,2.7,4.0,76,0.00,,---,0.00,VWS V14.01,2013-11-07 14:06:00,
2013-11-07 08:11:00,35.1,28.3,0.00,NW,315,3.1,4.0,76,0.00,,---,0.00,VWS V14.01,2013-11-07 14:11:00,
2013-11-07 08:16:00,36.0,27.5,0.00,West,270,2.2,3.4,71,0.00,,---,0.00,VWS V14.01,2013-11-07 14:16:00,
2013-11-07 08:21:00,36.5,27.3,0.00,NW,315,2.9,3.6,69,0.00,,---,0.00,VWS V14.01,2013-11-07 14:21:00,
2013-11-07 08:26:00,36.9,27.3,0.00,WNW,292,3.8,4.0,68,0.00,,---,0.00,VWS V14.01,2013-11-07 14:26:00,
2013-11-07 08:31:00,37.4,27.1,0.00,WSW,248,1.6,3.4,66,0.00,,---,0.00,VWS V14.01,2013-11-07 14:31:00,
2013-11-07 08:36:00,38.3,27.6,0.00,WNW,292,3.1,3.8,65,0.00,,---,0.00,VWS V14.01,2013-11-07 14:36:00,
2013-11-07 08:41:00,38.7,27.2,0.00,NW,315,3.1,4.3,63,0.00,,---,0.00,VWS V14.01,2013-11-07 14:41:00,
2013-11-07 08:46:00,39.0,27.5,0.00,WNW,292,4.3,4.3,63,0.00,,---,0.00,VWS V14.01,2013-11-07 14:46:00,
2013-11-07 08:51:00,39.8,27.8,0.00,West,270,5.4,5.4,62,0.00,,---,0.00,VWS V14.01,2013-11-07 14:51:00,
2013-11-07 08:56:00,40.1,28.2,0.00,WNW,292,3.8,6.5,62,0.00,,---,0.00,VWS V14.01,2013-11-07 14:56:00,
2013-11-07 09:01:00,40.8,28.0,0.00,WNW,292,5.8,5.8,60,0.00,,---,0.00,VWS V14.01,2013-11-07 15:01:00,
2013-11-07 09:06:00,41.2,28.0,0.00,West,270,6.5,6.9,59,0.00,,---,0.00,VWS V14.01,2013-11-07 15:06:00,
2013-11-07 09:11:00,41.2,28.0,0.00,West,270,4.0,6.9,59,0.00,,---,0.00,VWS V14.01,2013-11-07 15:11:00,
2013-11-07 09:16:00,41.9,29.1,0.00,West,270,3.6,3.6,60,0.00,,---,0.00,VWS V14.01,2013-11-07 15:16:00,
2013-11-07 09:21:00,43.0,29.7,0.00,West,270,3.8,4.3,59,0.00,,---,0.00,VWS V14.01,2013-11-07 15:21:00,
2013-11-07 09:26:00,43.5,29.8,0.00,West,270,2.2,4.3,58,0.00,,---,0.00,VWS V14.01,2013-11-07 15:26:00,
2013-11-07 09:31:00,44.4,30.6,0.00,SW,225,2.7,3.4,58,0.00,,---,0.00,VWS V14.01,2013-11-07 15:31:00,
2013-11-07 09:36:00,45.0,30.2,0.00,NW,315,2.2,4.0,56,0.00,,---,0.00,VWS V14.01,2013-11-07 15:36:00,
2013-11-07 09:41:00,45.7,30.5,0.00,WNW,292,2.9,4.0,55,0.00,,---,0.00,VWS V14.01,2013-11-07 15:41:00,
2013-11-07 09:46:00,46.6,31.3,0.00,West,270,2.9,4.0,55,0.00,,---,0.00,VWS V14.01,2013-11-07 15:46:00,
2013-11-07 09:51:00,47.5,31.7,0.00,WNW,292,4.0,4.0,54,0.00,,---,0.00,VWS V14.01,2013-11-07 15:51:00,
2013-11-07 09:56:00,48.0,31.7,0.00,WNW,292,2.7,4.5,53,0.00,,---,0.00,VWS V14.01,2013-11-07 15:56:00,
2013-11-07 10:01:00,49.1,32.7,0.00,NW,315,2.9,2.9,53,0.00,,---,0.00,VWS V14.01,2013-11-07 16:01:00,
2013-11-07 10:06:00,50.2,33.3,0.00,West,270,0.0,2.9,52,0.00,,---,0.00,VWS V14.01,2013-11-07 16:06:00,
2013-11-07 10:11:00,51.3,33.3,0.00,WSW,248,1.3,3.1,50,0.00,,---,0.00,VWS V14.01,2013-11-07 16:11:00,
2013-11-07 10:16:00,52.2,33.6,0.00,West,270,2.5,2.5,49,0.00,,---,0.00,VWS V14.01,2013-11-07 16:16:00,
2013-11-07 10:21:00,52.7,33.6,0.00,West,270,1.1,4.3,48,0.00,,---,0.00,VWS V14.01,2013-11-07 16:21:00,
2013-11-07 10:26:00,53.1,33.9,0.00,South,180,2.7,4.3,48,0.00,,---,0.00,VWS V14.01,2013-11-07 16:26:00,
2013-11-07 10:31:00,54.0,34.2,0.00,West,270,2.5,3.4,47,0.00,,---,0.00,VWS V14.01,2013-11-07 16:31:00,
2013-11-07 10:36:00,54.3,34.5,0.00,NW,315,2.5,3.6,47,0.00,,---,0.00,VWS V14.01,2013-11-07 16:36:00,
2013-11-07 10:41:00,54.9,35.0,0.00,North,0,3.4,3.8,47,0.00,,---,0.00,VWS V14.01,2013-11-07 16:41:00,
2013-11-07 10:46:00,56.0,36.0,0.00,NW,315,1.1,2.5,47,0.00,,---,0.00,VWS V14.01,2013-11-07 16:46:00,
2013-11-07 10:51:00,57.2,37.2,0.00,North,0,1.3,2.5,47,0.00,,---,0.00,VWS V14.01,2013-11-07 16:51:00,
2013-11-07 10:56:00,58.3,37.1,0.00,WNW,292,2.7,2.9,45,0.00,,---,0.00,VWS V14.01,2013-11-07 16:56:00,
2013-11-07 10:57:00,59.6,34.0,0.00,SE,135,2.7,6.5,38,0.00,,---,0.00,VWS V14.01,2013-11-07 16:57:00,
2013-11-07 10:59:00,59.6,34.0,0.00,SE,135,2.7,6.5,38,0.00,,---,0.00,VWS V14.01,2013-11-07 16:59:00,
2013-11-07 11:00:00,59.9,34.3,0.00,SSE,158,1.6,6.5,38,0.00,,---,0.00,VWS V14.01,2013-11-07 17:00:00,
2013-11-07 11:01:00,58.1,36.3,0.00,SSE,158,1.1,4.3,44,0.00,,---,0.00,VWS V14.01,2013-11-07 17:01:00,
2013-11-07 11:06:00,58.3,36.5,0.00,South,180,0.9,4.3,44,0.00,,---,0.00,VWS V14.01,2013-11-07 17:06:00,
2013-11-07 11:11:00,58.5,36.1,0.00,South,180,2.5,5.4,43,0.00,,---,0.00,VWS V14.01,2013-11-07 17:11:00,
2013-11-07 11:16:00,58.3,35.3,0.00,SE,135,2.9,4.9,42,0.00,,---,0.00,VWS V14.01,2013-11-07 17:16:00,
2013-11-07 11:21:00,58.5,35.5,0.00,SSW,202,4.3,4.9,42,0.00,,---,0.00,VWS V14.01,2013-11-07 17:21:00,
2013-11-07 11:26:00,58.7,35.0,0.00,NW,315,4.7,4.9,41,0.00,,---,0.00,VWS V14.01,2013-11-07 17:26:00,
2013-11-07 11:31:00,58.7,35.0,0.00,SW,225,4.3,4.3,41,0.00,,---,0.00,VWS V14.01,2013-11-07 17:31:00,
2013-11-07 11:36:00,59.0,35.4,0.00,SW,225,2.5,4.3,41,0.00,,---,0.00,VWS V14.01,2013-11-07 17:36:00,
2013-11-07 11:41:00,59.9,35.6,0.00,SW,225,3.1,5.6,40,0.00,,---,0.00,VWS V14.01,2013-11-07 17:41:00,
2013-11-07 11:46:00,59.6,34.6,0.00,SW,225,4.9,4.9,39,0.00,,---,0.00,VWS V14.01,2013-11-07 17:46:00,
2013-11-07 11:51:00,59.2,33.6,0.00,SW,225,0.0,4.9,38,0.00,,---,0.00,VWS V14.01,2013-11-07 17:51:00,
2013-11-07 11:56:00,59.6,34.0,0.00,South,180,4.3,6.0,38,0.00,,---,0.00,VWS V14.01,2013-11-07 17:56:00,
2013-11-07 12:00:00,60.1,34.4,0.00,SSW,202,4.7,4.7,38,0.00,,---,0.00,VWS V14.01,2013-11-07 18:00:00,
2013-11-07 12:05:00,59.7,33.4,0.00,SW,225,2.2,4.7,37,0.00,,---,0.00,VWS V14.01,2013-11-07 18:05:00,
2013-11-07 12:10:00,60.5,34.1,0.00,WNW,292,4.3,5.8,37,0.00,,---,0.00,VWS V14.01,2013-11-07 18:10:00,
2013-11-07 12:15:00,59.9,32.9,0.00,SSW,202,4.0,4.0,36,0.00,,---,0.00,VWS V14.01,2013-11-07 18:15:00,
2013-11-07 12:20:00,59.9,32.9,0.00,SW,225,2.7,5.4,36,0.00,,---,0.00,VWS V14.01,2013-11-07 18:20:00,
2013-11-07 12:25:00,60.8,33.7,0.00,SE,135,3.6,5.6,36,0.00,,---,0.00,VWS V14.01,2013-11-07 18:25:00,
2013-11-07 12:30:00,61.2,33.3,0.00,ESE,112,0.0,2.5,35,0.00,,---,0.00,VWS V14.01,2013-11-07 18:30:00,
2013-11-07 12:35:00,61.4,34.2,0.00,SSW,202,3.6,3.6,36,0.00,,---,0.00,VWS V14.01,2013-11-07 18:35:00,
2013-11-07 12:40:00,61.2,34.0,0.00,NW,315,5.4,6.0,36,0.00,,---,0.00,VWS V14.01,2013-11-07 18:40:00,
2013-11-07 12:45:00,61.0,33.9,0.00,WNW,292,4.3,4.3,36,0.00,,---,0.00,VWS V14.01,2013-11-07 18:45:00,
2013-11-07 12:50:00,60.8,33.7,0.00,West,270,3.1,6.0,36,0.00,,---,0.00,VWS V14.01,2013-11-07 18:50:00,
2013-11-07 12:55:00,61.2,34.0,0.00,SSE,158,2.9,6.0,36,0.00,,---,0.00,VWS V14.01,2013-11-07 18:55:00,
2013-11-07 13:00:00,60.8,33.7,0.00,South,180,5.4,7.6,36,0.00,,---,0.00,VWS V14.01,2013-11-07 19:00:00,
2013-11-07 13:05:00,61.2,34.0,0.00,West,270,2.9,7.6,36,0.00,,---,0.00,VWS V14.01,2013-11-07 19:05:00,
2013-11-07 13:10:00,61.7,34.5,0.00,WSW,248,2.9,7.6,36,0.00,,---,0.00,VWS V14.01,2013-11-07 19:10:00,
2013-11-07 13:15:00,61.2,33.3,0.00,SSW,202,2.0,4.0,35,0.00,,---,0.00,VWS V14.01,2013-11-07 19:15:00,
2013-11-07 13:20:00,61.4,33.5,0.00,South,180,7.8,7.8,35,0.00,,---,0.00,VWS V14.01,2013-11-07 19:20:00,
2013-11-07 13:25:00,61.7,34.5,0.00,South,180,1.6,7.8,36,0.00,,---,0.00,VWS V14.01,2013-11-07 19:25:00,
2013-11-07 13:30:00,62.1,34.8,0.00,South,180,4.3,5.8,36,0.00,,---,0.00,VWS V14.01,2013-11-07 19:30:00,
2013-11-07 13:35:00,62.3,34.3,0.00,South,180,6.3,8.1,35,0.00,,---,0.00,VWS V14.01,2013-11-07 19:35:00,
2013-11-07 13:40:00,62.1,34.1,0.00,SW,225,3.1,10.1,35,0.00,,---,0.00,VWS V14.01,2013-11-07 19:40:00,
2013-11-07 13:45:00,62.8,34.8,0.00,South,180,3.1,4.3,35,0.00,,---,0.00,VWS V14.01,2013-11-07 19:45:00,
2013-11-07 13:50:00,63.0,34.9,0.00,SW,225,5.6,5.6,35,0.00,,---,0.00,VWS V14.01,2013-11-07 19:50:00,
2013-11-07 13:55:00,63.2,35.1,0.00,NW,315,2.0,7.4,35,0.00,,---,0.00,VWS V14.01,2013-11-07 19:55:00,
2013-11-07 14:00:00,63.0,34.9,0.00,South,180,3.4,7.4,35,0.00,,---,0.00,VWS V14.01,2013-11-07 20:00:00,
2013-11-07 14:05:00,63.7,34.8,0.00,SE,135,3.4,7.4,34,0.00,,---,0.00,VWS V14.01,2013-11-07 20:05:00,
2013-11-07 14:10:00,63.2,34.4,0.00,SW,225,5.4,8.1,34,0.00,,---,0.00,VWS V14.01,2013-11-07 20:10:00,
2013-11-07 14:15:00,63.2,33.6,0.00,SSE,158,3.4,8.1,33,0.00,,---,0.00,VWS V14.01,2013-11-07 20:15:00,
2013-11-07 14:20:00,62.6,33.9,0.00,South,180,4.5,8.7,34,0.00,,---,0.00,VWS V14.01,2013-11-07 20:20:00,
2013-11-07 14:25:00,62.8,34.0,0.00,South,180,2.7,8.7,34,0.00,,---,0.00,VWS V14.01,2013-11-07 20:25:00,
2013-11-07 14:30:00,63.0,34.2,0.00,South,180,5.6,8.7,34,0.00,,---,0.00,VWS V14.01,2013-11-07 20:30:00,
2013-11-07 14:35:00,63.0,34.9,0.00,SSW,202,5.6,9.2,35,0.00,,---,0.00,VWS V14.01,2013-11-07 20:35:00,
2013-11-07 14:40:00,62.4,34.5,0.00,SSE,158,7.8,10.3,35,0.00,,---,0.00,VWS V14.01,2013-11-07 20:40:00,
2013-11-07 14:45:00,62.6,34.6,0.00,South,180,8.7,8.7,35,0.00,,---,0.00,VWS V14.01,2013-11-07 20:45:00,
2013-11-07 14:50:00,61.9,34.0,0.00,South,180,8.5,12.8,35,0.00,,---,0.00,VWS V14.01,2013-11-07 20:50:00,
2013-11-07 14:55:00,62.6,34.6,0.00,SW,225,4.0,12.8,35,0.00,,---,0.00,VWS V14.01,2013-11-07 20:55:00,
2013-11-07 15:00:00,62.4,34.5,0.00,South,180,9.8,9.8,35,0.00,,---,0.00,VWS V14.01,2013-11-07 21:00:00,
2013-11-07 15:05:00,62.8,34.0,0.00,SSW,202,4.9,9.8,34,0.00,,---,0.00,VWS V14.01,2013-11-07 21:05:00,
2013-11-07 15:10:00,62.8,34.0,0.00,South,180,7.4,9.8,34,0.00,,---,0.00,VWS V14.01,2013-11-07 21:10:00,
2013-11-07 15:15:00,62.8,34.0,0.00,South,180,7.4,7.4,34,0.00,,---,0.00,VWS V14.01,2013-11-07 21:15:00,
2013-11-07 15:20:00,62.3,34.3,0.00,South,180,9.0,12.8,35,0.00,,---,0.00,VWS V14.01,2013-11-07 21:20:00,
2013-11-07 15:25:00,62.3,34.3,0.00,SSE,158,7.6,12.8,35,0.00,,---,0.00,VWS V14.01,2013-11-07 21:25:00,
2013-11-07 15:30:00,62.3,34.3,0.00,SW,225,5.6,6.5,35,0.00,,---,0.00,VWS V14.01,2013-11-07 21:30:00,
2013-11-07 15:35:00,62.3,34.3,0.00,SE,135,3.6,9.6,35,0.00,,---,0.00,VWS V14.01,2013-11-07 21:35:00,
2013-11-07 15:40:00,62.4,34.5,0.00,SE,135,8.5,11.0,35,0.00,,---,0.00,VWS V14.01,2013-11-07 21:40:00,
2013-11-07 15:45:00,62.3,34.3,0.00,South,180,5.6,11.0,35,0.00,,---,0.00,VWS V14.01,2013-11-07 21:45:00,
2013-11-07 15:50:00,62.4,34.5,0.00,SSE,158,10.3,12.8,35,0.00,,---,0.00,VWS V14.01,2013-11-07 21:50:00,
2013-11-07 15:55:00,62.4,34.5,0.00,South,180,6.3,13.0,35,0.00,,---,0.00,VWS V14.01,2013-11-07 21:55:00,
2013-11-07 16:00:00,62.3,34.3,0.00,South,180,10.1,13.0,35,0.00,,---,0.00,VWS V14.01,2013-11-07 22:00:00,
2013-11-07 16:05:00,62.3,34.3,0.00,South,180,8.1,13.0,35,0.00,,---,0.00,VWS V14.01,2013-11-07 22:05:00,
2013-11-07 16:10:00,62.1,34.1,0.00,South,180,0.0,13.6,35,0.00,,---,0.00,VWS V14.01,2013-11-07 22:10:00,
2013-11-07 16:15:00,61.9,34.0,0.00,South,180,0.0,13.6,35,0.00,,---,0.00,VWS V14.01,2013-11-07 22:15:00,
2013-11-07 16:20:00,61.5,32.9,0.00,SW,225,0.0,0.0,34,0.00,,---,0.00,VWS V14.01,2013-11-07 22:20:00,
2013-11-07 16:25:00,61.7,33.8,0.00,South,180,0.0,0.0,35,0.00,,---,0.00,VWS V14.01,2013-11-07 22:25:00,
2013-11-07 16:30:00,61.7,33.8,0.00,SSE,158,0.0,0.0,35,0.00,,---,0.00,VWS V14.01,2013-11-07 22:30:00,
2013-11-07 16:35:00,61.7,33.8,0.00,SSE,158,0.0,0.0,35,0.00,,---,0.00,VWS V14.01,2013-11-07 22:35:00,
2013-11-07 16:40:00,61.4,33.5,0.00,South,180,0.0,0.0,35,0.00,,---,0.00,VWS V14.01,2013-11-07 22:40:00,
2013-11-07 16:45:00,61.2,33.3,0.00,South,180,0.0,0.0,35,0.00,,---,0.00,VWS V14.01,2013-11-07 22:45:00,
2013-11-07 16:50:00,61.0,33.2,0.00,South,180,0.0,0.0,35,0.00,,---,0.00,VWS V14.01,2013-11-07 22:50:00,
2013-11-07 16:55:00,60.6,33.6,0.00,South,180,0.0,0.0,36,0.00,,---,0.00,VWS V14.01,2013-11-07 22:55:00,
2013-11-07 17:00:00,58.8,32.0,0.00,South,180,0.0,0.0,36,0.00,,---,0.00,VWS V14.01,2013-11-07 23:00:00,
2013-11-07 17:05:00,57.9,31.8,0.00,SSE,158,0.0,0.0,37,0.00,,---,0.00,VWS V14.01,2013-11-07 23:05:00,
2013-11-07 17:10:00,57.2,31.2,0.00,SE,135,0.0,0.0,37,0.00,,---,0.00,VWS V14.01,2013-11-07 23:10:00,
2013-11-07 17:15:00,56.3,31.1,0.00,SSE,158,0.0,0.0,38,0.00,,---,0.00,VWS V14.01,2013-11-07 23:15:00,
2013-11-07 17:20:00,55.8,30.6,0.00,SSE,158,0.0,0.0,38,0.00,,---,0.00,VWS V14.01,2013-11-07 23:20:00,
2013-11-07 17:25:00,55.1,30.6,0.00,SSE,158,0.0,0.0,39,0.00,,---,0.00,VWS V14.01,2013-11-07 23:25:00,
2013-11-07 17:30:00,54.0,29.6,0.00,SE,135,0.0,0.0,39,0.00,,---,0.00,VWS V14.01,2013-11-07 23:30:00,
2013-11-07 17:35:00,53.6,29.9,0.00,SSE,158,0.0,0.0,40,0.00,,---,0.00,VWS V14.01,2013-11-07 23:35:00,
2013-11-07 17:40:00,52.7,29.1,0.00,SE,135,0.0,0.0,40,0.00,,---,0.00,VWS V14.01,2013-11-07 23:40:00,
2013-11-07 17:45:00,51.6,28.7,0.00,SE,135,0.0,0.0,41,0.00,,---,0.00,VWS V14.01,2013-11-07 23:45:00,
2013-11-07 17:50:00,50.9,28.7,0.00,SE,135,0.0,0.0,42,0.00,,---,0.00,VWS V14.01,2013-11-07 23:50:00,
2013-11-07 17:55:00,50.6,29.5,0.00,SE,135,0.0,0.0,44,0.00,,---,0.00,VWS V14.01,2013-11-07 23:55:00,
2013-11-07 18:00:00,50.2,29.7,0.00,SE,135,0.0,0.0,45,0.00,,---,0.00,VWS V14.01,2013-11-08 00:00:00,
2013-11-07 18:05:00,49.8,30.4,0.00,SE,135,0.0,0.0,47,0.00,,---,0.00,VWS V14.01,2013-11-08 00:05:00,
2013-11-07 18:06:00,46.1,30.8,0.00,SE,135,0.0,0.0,55,0.00,,---,0.00,VWS V14.01,2013-11-08 00:06:00,
2013-11-07 18:07:00,46.1,30.8,0.00,SE,135,0.0,0.0,55,0.00,,---,0.00,VWS V14.01,2013-11-08 00:07:00,
2013-11-07 18:08:00,46.1,30.8,0.00,SE,135,0.0,0.0,55,0.00,,---,0.00,VWS V14.01,2013-11-08 00:08:00,
2013-11-07 18:09:00,46.1,30.8,0.00,SE,135,0.0,0.0,55,0.00,,---,0.00,VWS V14.01,2013-11-08 00:09:00,
2013-11-07 18:10:00,49.5,30.6,0.00,SE,135,0.0,0.0,48,0.00,,---,0.00,VWS V14.01,2013-11-08 00:10:00,
2013-11-07 18:15:00,49.3,30.5,0.00,SE,135,0.0,0.0,48,0.00,,---,0.00,VWS V14.01,2013-11-08 00:15:00,
2013-11-07 18:20:00,48.9,30.6,0.00,SE,135,0.0,0.0,49,0.00,,---,0.00,VWS V14.01,2013-11-08 00:20:00,
2013-11-07 18:25:00,48.4,30.6,0.00,SE,135,0.0,0.0,50,0.00,,---,0.00,VWS V14.01,2013-11-08 00:25:00,
2013-11-07 18:30:00,48.0,30.3,0.00,SE,135,0.0,0.0,50,0.00,,---,0.00,VWS V14.01,2013-11-08 00:30:00,
2013-11-07 18:35:00,47.5,30.3,0.00,SE,135,0.0,0.0,51,0.00,,---,0.00,VWS V14.01,2013-11-08 00:35:00,
2013-11-07 18:40:00,47.1,30.4,0.00,SE,135,0.0,0.0,52,0.00,,---,0.00,VWS V14.01,2013-11-08 00:40:00,
2013-11-07 18:45:00,46.8,30.6,0.00,SE,135,0.0,0.0,53,0.00,,---,0.00,VWS V14.01,2013-11-08 00:45:00,
2013-11-07 18:50:00,46.6,30.4,0.00,SE,135,0.0,0.0,53,0.00,,---,0.00,VWS V14.01,2013-11-08 00:50:00,
2013-11-07 18:55:00,46.4,30.7,0.00,SE,135,0.0,0.0,54,0.00,,---,0.00,VWS V14.01,2013-11-08 00:55:00,
2013-11-07 19:00:00,46.2,30.5,0.00,SE,135,0.0,0.0,54,0.00,,---,0.00,VWS V14.01,2013-11-08 01:00:00,
2013-11-07 19:05:00,46.1,30.8,0.00,SE,135,0.0,0.0,55,0.00,,---,0.00,VWS V14.01,2013-11-08 01:05:00,
2013-11-07 19:10:00,46.1,30.8,0.00,SE,135,0.0,0.0,55,0.00,,---,0.00,VWS V14.01,2013-11-08 01:10:00,
2013-11-07 19:15:00,45.9,30.6,0.00,SE,135,0.0,0.0,55,0.00,,---,0.00,VWS V14.01,2013-11-08 01:15:00,
2013-11-07 19:19:00,45.7,30.5,0.00,SE,135,0.0,0.0,55,0.00,,---,0.00,VWS V14.01,2013-11-08 01:19:00,
2013-11-07 19:24:00,45.5,30.8,0.00,SE,135,0.0,0.0,56,0.00,,---,0.00,VWS V14.01,2013-11-08 01:24:00,
2013-11-07 19:29:00,45.9,31.1,0.00,SE,135,0.0,0.0,56,0.00,,---,0.00,VWS V14.01,2013-11-08 01:29:00,
2013-11-07 19:34:00,45.5,30.8,0.00,SE,135,0.0,0.0,56,0.00,,---,0.00,VWS V14.01,2013-11-08 01:34:00,
2013-11-07 19:39:00,45.5,30.8,0.00,SE,135,0.0,0.0,56,0.00,,---,0.00,VWS V14.01,2013-11-08 01:39:00,
2013-11-07 19:44:00,45.3,31.0,0.00,SE,135,0.0,0.0,57,0.00,,---,0.00,VWS V14.01,2013-11-08 01:44:00,
2013-11-07 19:49:00,45.2,31.3,0.00,SE,135,0.0,0.0,58,0.00,,---,0.00,VWS V14.01,2013-11-08 01:49:00,
2013-11-07 19:54:00,45.0,31.1,0.00,SSE,158,0.0,0.0,58,0.00,,---,0.00,VWS V14.01,2013-11-08 01:54:00,
2013-11-07 19:59:00,45.2,31.3,0.00,SSE,158,0.0,0.0,58,0.00,,---,0.00,VWS V14.01,2013-11-08 01:59:00,
2013-11-07 20:04:00,45.0,31.1,0.00,South,180,0.0,0.0,58,0.00,,---,0.00,VWS V14.01,2013-11-08 02:04:00,
2013-11-07 20:09:00,44.6,31.2,0.00,SSE,158,0.0,0.0,59,0.00,,---,0.00,VWS V14.01,2013-11-08 02:09:00,
2013-11-07 20:14:00,44.4,31.4,0.00,SSE,158,0.0,0.0,60,0.00,,---,0.00,VWS V14.01,2013-11-08 02:14:00,
2013-11-07 20:19:00,44.1,31.5,0.00,SSE,158,0.0,0.0,61,0.00,,---,0.00,VWS V14.01,2013-11-08 02:19:00,
2013-11-07 20:24:00,44.1,31.5,0.00,SSE,158,0.0,0.0,61,0.00,,---,0.00,VWS V14.01,2013-11-08 02:24:00,
2013-11-07 20:29:00,43.7,31.2,0.00,South,180,0.0,0.0,61,0.00,,---,0.00,VWS V14.01,2013-11-08 02:29:00,
2013-11-07 20:34:00,43.4,31.2,0.00,South,180,0.0,0.0,62,0.00,,---,0.00,VWS V14.01,2013-11-08 02:34:00,
2013-11-07 20:39:00,43.5,31.4,0.00,SSE,158,0.0,0.0,62,0.00,,---,0.00,VWS V14.01,2013-11-08 02:39:00,
2013-11-07 20:44:00,43.7,31.6,0.00,South,180,0.0,0.0,62,0.00,,---,0.00,VWS V14.01,2013-11-08 02:44:00,
2013-11-07 20:49:00,43.5,31.4,0.00,South,180,0.0,0.0,62,0.00,,---,0.00,VWS V14.01,2013-11-08 02:49:00,
2013-11-07 20:54:00,43.5,31.4,0.00,SSE,158,0.0,0.0,62,0.00,,---,0.00,VWS V14.01,2013-11-08 02:54:00,
2013-11-07 20:59:00,43.5,31.0,0.00,SSE,158,0.0,0.0,61,0.00,,---,0.00,VWS V14.01,2013-11-08 02:59:00,
2013-11-07 21:04:00,43.7,31.2,0.00,SSW,202,0.0,0.0,61,0.00,,---,0.00,VWS V14.01,2013-11-08 03:04:00,
2013-11-07 21:09:00,43.9,31.3,0.00,SSE,158,4.3,10.7,61,0.00,,---,0.00,VWS V14.01,2013-11-08 03:09:00,
2013-11-07 21:14:00,43.9,31.7,0.00,South,180,12.3,12.3,62,0.00,,---,0.00,VWS V14.01,2013-11-08 03:14:00,
2013-11-07 21:19:00,44.1,31.5,0.00,South,180,6.3,12.5,61,0.00,,---,0.00,VWS V14.01,2013-11-08 03:19:00,
2013-11-07 21:24:00,44.1,31.5,0.00,SSE,158,9.6,12.5,61,0.00,,---,0.00,VWS V14.01,2013-11-08 03:24:00,
2013-11-07 21:29:00,44.3,31.3,0.00,SSE,158,7.8,12.5,60,0.00,,---,0.00,VWS V14.01,2013-11-08 03:29:00,
2013-11-07 21:34:00,44.3,31.3,0.00,South,180,5.8,10.3,60,0.00,,---,0.00,VWS V14.01,2013-11-08 03:34:00,
2013-11-07 21:39:00,44.3,31.3,0.00,SSE,158,4.7,10.5,60,0.00,,---,0.00,VWS V14.01,2013-11-08 03:39:00,
2013-11-07 21:44:00,44.3,31.3,0.00,South,180,7.2,10.5,60,0.00,,---,0.00,VWS V14.01,2013-11-08 03:44:00,
2013-11-07 21:49:00,44.4,31.4,0.00,South,180,7.4,10.5,60,0.00,,---,0.00,VWS V14.01,2013-11-08 03:49:00,
2013-11-07 21:54:00,44.8,31.4,0.00,SSE,158,8.5,11.9,59,0.00,,---,0.00,VWS V14.01,2013-11-08 03:54:00,
2013-11-07 21:59:00,45.3,31.5,0.00,South,180,10.5,15.2,58,0.00,,---,0.00,VWS V14.01,2013-11-08 03:59:00,
2013-11-07 22:00:00,45.0,30.7,0.00,South,180,6.7,6.7,57,0.00,,---,0.00,VWS V14.01,2013-11-08 04:00:00,
2013-11-07 22:01:00,45.0,30.7,0.00,South,180,6.7,6.7,57,0.00,,---,0.00,VWS V14.01,2013-11-08 04:01:00,
2013-11-07 22:03:00,45.2,30.9,0.00,SSE,158,4.3,6.7,57,0.00,,---,0.00,VWS V14.01,2013-11-08 04:03:00,
2013-11-07 22:04:00,45.2,31.3,0.00,SSE,158,7.8,12.8,58,0.00,,---,0.00,VWS V14.01,2013-11-08 04:04:00,
2013-11-07 22:05:00,45.3,30.6,0.00,South,180,4.7,6.7,56,0.00,,---,0.00,VWS V14.01,2013-11-08 04:05:00,
2013-11-07 22:06:00,45.3,30.6,0.00,South,180,7.6,7.8,56,0.00,,---,0.00,VWS V14.01,2013-11-08 04:06:00,
2013-11-07 22:07:00,45.3,30.6,0.00,South,180,4.0,7.8,56,0.00,,---,0.00,VWS V14.01,2013-11-08 04:07:00,
2013-11-07 22:09:00,45.2,31.3,0.00,South,180,12.5,12.8,58,0.00,,---,0.00,VWS V14.01,2013-11-08 04:09:00,
2013-11-07 22:14:00,45.0,31.1,0.00,South,180,8.1,12.8,58,0.00,,---,0.00,VWS V14.01,2013-11-08 04:14:00,
2013-11-07 22:19:00,45.0,31.1,0.00,SSE,158,10.1,10.7,58,0.00,,---,0.00,VWS V14.01,2013-11-08 04:19:00,
2013-11-07 22:24:00,45.0,30.7,0.00,South,180,13.0,13.0,57,0.00,,---,0.00,VWS V14.01,2013-11-08 04:24:00,
2013-11-07 22:29:00,44.8,30.5,0.00,South,180,6.3,13.0,57,0.00,,---,0.00,VWS V14.01,2013-11-08 04:29:00,
2013-11-07 22:34:00,45.0,30.7,0.00,SSE,158,4.3,10.3,57,0.00,,---,0.00,VWS V14.01,2013-11-08 04:34:00,
2013-11-07 22:39:00,45.0,30.7,0.00,SSE,158,6.5,10.3,57,0.00,,---,0.00,VWS V14.01,2013-11-08 04:39:00,
2013-11-07 22:44:00,44.6,30.3,0.00,South,180,3.1,10.3,57,0.00,,---,0.00,VWS V14.01,2013-11-08 04:44:00,
2013-11-07 22:49:00,44.8,30.5,0.00,South,180,5.4,8.7,57,0.00,,---,0.00,VWS V14.01,2013-11-08 04:49:00,
2013-11-07 22:54:00,44.8,30.5,0.00,SSE,158,6.0,8.7,57,0.00,,---,0.00,VWS V14.01,2013-11-08 04:54:00,
2013-11-07 22:59:00,45.0,30.7,0.00,South,180,5.8,8.7,57,0.00,,---,0.00,VWS V14.01,2013-11-08 04:59:00,
2013-11-07 23:04:00,45.2,30.9,0.00,SSE,158,5.6,6.7,57,0.00,,---,0.00,VWS V14.01,2013-11-08 05:04:00,
2013-11-07 23:09:00,45.5,30.8,0.00,South,180,7.4,8.5,56,0.00,,---,0.00,VWS V14.01,2013-11-08 05:09:00,
2013-11-07 23:14:00,46.1,30.8,0.00,South,180,9.0,12.8,55,0.00,,---,0.00,VWS V14.01,2013-11-08 05:14:00,
2013-11-07 23:19:00,46.1,30.8,0.00,SSE,158,6.5,11.0,55,0.00,,---,0.00,VWS V14.01,2013-11-08 05:19:00,
2013-11-07 23:24:00,46.1,30.4,0.00,SE,135,5.4,13.0,54,0.00,,---,0.00,VWS V14.01,2013-11-08 05:24:00,
2013-11-07 23:29:00,45.7,30.0,0.00,South,180,7.6,13.0,54,0.00,,---,0.00,VWS V14.01,2013-11-08 05:29:00,
2013-11-07 23:34:00,45.5,30.3,0.00,South,180,7.4,10.1,55,0.00,,---,0.00,VWS V14.01,2013-11-08 05:34:00,
2013-11-07 23:39:00,45.5,30.3,0.00,South,180,6.5,11.4,55,0.00,,---,0.00,VWS V14.01,2013-11-08 05:39:00,
2013-11-07 23:44:00,45.5,29.9,0.00,South,180,7.6,12.8,54,0.00,,---,0.00,VWS V14.01,2013-11-08 05:44:00,
2013-11-07 23:49:00,45.5,29.9,0.00,South,180,7.6,8.7,54,0.00,,---,0.00,VWS V14.01,2013-11-08 05:49:00,
2013-11-07 23:54:00,45.7,30.0,0.00,SSW,202,9.4,14.3,54,0.00,,---,0.00,VWS V14.01,2013-11-08 05:54:00,
2013-11-07 23:59:00,46.1,29.9,0.00,SSE,158,9.8,17.7,53,0.00,,---,0.00,VWS V14.01,2013-11-08 05:59:00,